<?xml version="1.0" encoding="UTF-8" standalone="no" ?>
<gpx xmlns="http://www.topografix.com/GPX/1/1" xmlns:xsi="http://www.w3.org/2001/XMLSchema-instance" xsi:schemaLocation="http://www.topografix.com/GPX/1/1 http://www.topografix.com/GPX/1/1/gpx.xsd" version="1.1" creator="VisuGPX - https://www.visugpx.com">
  <metadata>
    <name>LANDEBAERON</name>
    <desc><![CDATA[Boucle au départ du parking de l\'Eglise de LANDEBAERON]]></desc>
  </metadata>
  <trk>
    <name><![CDATA[Paul et Renée]]></name>
    <trkseg>
      <trkpt lat="48.63528" lon="-3.2128">
        <ele>68.9</ele>
        <time>2012-11-08T12:54:38Z</time>
      </trkpt>
      <trkpt lat="48.6355" lon="-3.21366">
        <ele>68.8</ele>
        <time>2012-11-08T12:54:38Z</time>
      </trkpt>
      <trkpt lat="48.63529" lon="-3.21434">
        <ele>71.3</ele>
        <time>2012-11-08T12:54:38Z</time>
      </trkpt>
      <trkpt lat="48.63523" lon="-3.21506">
        <ele>75.2</ele>
        <time>2012-11-08T12:54:38Z</time>
      </trkpt>
      <trkpt lat="48.63515" lon="-3.21576">
        <ele>76.9</ele>
        <time>2012-11-08T12:54:38Z</time>
      </trkpt>
      <trkpt lat="48.63495" lon="-3.2164">
        <ele>77.5</ele>
        <time>2012-11-08T12:54:38Z</time>
      </trkpt>
      <trkpt lat="48.63447" lon="-3.21651">
        <ele>79.4</ele>
        <time>2012-11-08T12:54:38Z</time>
      </trkpt>
      <trkpt lat="48.63406" lon="-3.21675">
        <ele>81.1</ele>
        <time>2012-11-08T12:54:38Z</time>
      </trkpt>
      <trkpt lat="48.6337" lon="-3.21724">
        <ele>84.7</ele>
        <time>2012-11-08T12:54:38Z</time>
      </trkpt>
      <trkpt lat="48.63333" lon="-3.21768">
        <ele>86.4</ele>
        <time>2012-11-08T12:54:38Z</time>
      </trkpt>
      <trkpt lat="48.63294" lon="-3.21816">
        <ele>86.7</ele>
        <time>2012-11-08T12:54:38Z</time>
      </trkpt>
      <trkpt lat="48.63259" lon="-3.21869">
        <ele>88.4</ele>
        <time>2012-11-08T12:54:38Z</time>
      </trkpt>
      <trkpt lat="48.63223" lon="-3.21917">
        <ele>89</ele>
        <time>2012-11-08T12:54:38Z</time>
      </trkpt>
      <trkpt lat="48.63184" lon="-3.21956">
        <ele>90.2</ele>
        <time>2012-11-08T12:54:38Z</time>
      </trkpt>
      <trkpt lat="48.63144" lon="-3.21984">
        <ele>90.9</ele>
        <time>2012-11-08T12:54:38Z</time>
      </trkpt>
      <trkpt lat="48.63104" lon="-3.22008">
        <ele>91</ele>
        <time>2012-11-08T12:54:38Z</time>
      </trkpt>
      <trkpt lat="48.63063" lon="-3.22025">
        <ele>91.2</ele>
        <time>2012-11-08T12:54:38Z</time>
      </trkpt>
      <trkpt lat="48.63022" lon="-3.22028">
        <ele>92</ele>
        <time>2012-11-08T12:54:38Z</time>
      </trkpt>
      <trkpt lat="48.62975" lon="-3.22031">
        <ele>92.8</ele>
        <time>2012-11-08T12:54:38Z</time>
      </trkpt>
      <trkpt lat="48.62929" lon="-3.22032">
        <ele>95.1</ele>
        <time>2012-11-08T12:54:38Z</time>
      </trkpt>
      <trkpt lat="48.62884" lon="-3.2204">
        <ele>97.2</ele>
        <time>2012-11-08T12:54:38Z</time>
      </trkpt>
      <trkpt lat="48.62838" lon="-3.2205">
        <ele>98.8</ele>
        <time>2012-11-08T12:54:38Z</time>
      </trkpt>
      <trkpt lat="48.62794" lon="-3.22061">
        <ele>100.4</ele>
        <time>2012-11-08T12:54:38Z</time>
      </trkpt>
      <trkpt lat="48.62746" lon="-3.22072">
        <ele>101.1</ele>
        <time>2012-11-08T12:54:38Z</time>
      </trkpt>
      <trkpt lat="48.62708" lon="-3.22108">
        <ele>102.5</ele>
        <time>2012-11-08T12:54:38Z</time>
      </trkpt>
      <trkpt lat="48.62684" lon="-3.22175">
        <ele>101.8</ele>
        <time>2012-11-08T12:54:38Z</time>
      </trkpt>
      <trkpt lat="48.62669" lon="-3.22243">
        <ele>101</ele>
        <time>2012-11-08T12:54:38Z</time>
      </trkpt>
      <trkpt lat="48.62645" lon="-3.223">
        <ele>101.3</ele>
        <time>2012-11-08T12:54:38Z</time>
      </trkpt>
      <trkpt lat="48.62602" lon="-3.22334">
        <ele>101</ele>
        <time>2012-11-08T12:54:38Z</time>
      </trkpt>
      <trkpt lat="48.62557" lon="-3.22364">
        <ele>99.9</ele>
        <time>2012-11-08T12:54:38Z</time>
      </trkpt>
      <trkpt lat="48.62518" lon="-3.22392">
        <ele>96.8</ele>
        <time>2012-11-08T12:54:38Z</time>
      </trkpt>
      <trkpt lat="48.62476" lon="-3.22428">
        <ele>92.7</ele>
        <time>2012-11-08T12:54:38Z</time>
      </trkpt>
      <trkpt lat="48.62443" lon="-3.22481">
        <ele>90</ele>
        <time>2012-11-08T12:54:38Z</time>
      </trkpt>
      <trkpt lat="48.62427" lon="-3.22552">
        <ele>88.1</ele>
        <time>2012-11-08T12:54:38Z</time>
      </trkpt>
      <trkpt lat="48.62419" lon="-3.22623">
        <ele>90.5</ele>
        <time>2012-11-08T12:54:38Z</time>
      </trkpt>
      <trkpt lat="48.62404" lon="-3.22695">
        <ele>92.5</ele>
        <time>2012-11-08T12:54:38Z</time>
      </trkpt>
      <trkpt lat="48.62388" lon="-3.22759">
        <ele>93.3</ele>
        <time>2012-11-08T12:54:38Z</time>
      </trkpt>
      <trkpt lat="48.62364" lon="-3.22803">
        <ele>94</ele>
        <time>2012-11-08T12:54:38Z</time>
      </trkpt>
      <trkpt lat="48.62322" lon="-3.22785">
        <ele>92.8</ele>
        <time>2012-11-08T12:54:38Z</time>
      </trkpt>
      <trkpt lat="48.6228" lon="-3.2278">
        <ele>92.1</ele>
        <time>2012-11-08T12:54:38Z</time>
      </trkpt>
      <trkpt lat="48.62268" lon="-3.22714">
        <ele>90</ele>
        <time>2012-11-08T12:54:38Z</time>
      </trkpt>
      <trkpt lat="48.62249" lon="-3.22647">
        <ele>89</ele>
        <time>2012-11-08T12:54:38Z</time>
      </trkpt>
      <trkpt lat="48.62219" lon="-3.22584">
        <ele>92.2</ele>
        <time>2012-11-08T12:54:38Z</time>
      </trkpt>
      <trkpt lat="48.62183" lon="-3.22554">
        <ele>94.4</ele>
        <time>2012-11-08T12:54:38Z</time>
      </trkpt>
      <trkpt lat="48.62157" lon="-3.22517">
        <ele>95.7</ele>
        <time>2012-11-08T12:54:38Z</time>
      </trkpt>
      <trkpt lat="48.62115" lon="-3.22489">
        <ele>97.7</ele>
        <time>2012-11-08T12:54:38Z</time>
      </trkpt>
      <trkpt lat="48.62072" lon="-3.22465">
        <ele>99.9</ele>
        <time>2012-11-08T12:54:38Z</time>
      </trkpt>
      <trkpt lat="48.62029" lon="-3.22445">
        <ele>102.9</ele>
        <time>2012-11-08T12:54:38Z</time>
      </trkpt>
      <trkpt lat="48.6198" lon="-3.2244">
        <ele>104</ele>
        <time>2012-11-08T12:54:38Z</time>
      </trkpt>
      <trkpt lat="48.61931" lon="-3.22439">
        <ele>105.9</ele>
        <time>2012-11-08T12:54:38Z</time>
      </trkpt>
      <trkpt lat="48.61882" lon="-3.22434">
        <ele>107.5</ele>
        <time>2012-11-08T12:54:38Z</time>
      </trkpt>
      <trkpt lat="48.61837" lon="-3.22417">
        <ele>107.1</ele>
        <time>2012-11-08T12:54:38Z</time>
      </trkpt>
      <trkpt lat="48.61837" lon="-3.22493">
        <ele>103.3</ele>
        <time>2012-11-08T12:54:38Z</time>
      </trkpt>
      <trkpt lat="48.61848" lon="-3.22571">
        <ele>98.4</ele>
        <time>2012-11-08T12:54:38Z</time>
      </trkpt>
      <trkpt lat="48.61846" lon="-3.22633">
        <ele>97.6</ele>
        <time>2012-11-08T12:54:38Z</time>
      </trkpt>
      <trkpt lat="48.61813" lon="-3.22652">
        <ele>100.1</ele>
        <time>2012-11-08T12:54:38Z</time>
      </trkpt>
      <trkpt lat="48.61797" lon="-3.22696">
        <ele>99.7</ele>
        <time>2012-11-08T12:54:38Z</time>
      </trkpt>
      <trkpt lat="48.61758" lon="-3.22728">
        <ele>100.3</ele>
        <time>2012-11-08T12:54:38Z</time>
      </trkpt>
      <trkpt lat="48.61726" lon="-3.22772">
        <ele>98.4</ele>
        <time>2012-11-08T12:54:38Z</time>
      </trkpt>
      <trkpt lat="48.61688" lon="-3.22798">
        <ele>100</ele>
        <time>2012-11-08T12:54:38Z</time>
      </trkpt>
      <trkpt lat="48.61646" lon="-3.22814">
        <ele>101.6</ele>
        <time>2012-11-08T12:54:38Z</time>
      </trkpt>
      <trkpt lat="48.61601" lon="-3.22843">
        <ele>102</ele>
        <time>2012-11-08T12:54:38Z</time>
      </trkpt>
      <trkpt lat="48.61563" lon="-3.22872">
        <ele>103.2</ele>
        <time>2012-11-08T12:54:38Z</time>
      </trkpt>
      <trkpt lat="48.61543" lon="-3.22937">
        <ele>102.6</ele>
        <time>2012-11-08T12:54:38Z</time>
      </trkpt>
      <trkpt lat="48.61534" lon="-3.22966">
        <ele>102.1</ele>
        <time>2012-11-08T12:54:38Z</time>
      </trkpt>
      <trkpt lat="48.6151" lon="-3.23004">
        <ele>104.9</ele>
        <time>2012-11-08T12:54:38Z</time>
      </trkpt>
      <trkpt lat="48.615" lon="-3.23064">
        <ele>102.4</ele>
        <time>2012-11-08T12:54:38Z</time>
      </trkpt>
      <trkpt lat="48.61469" lon="-3.2311">
        <ele>102.3</ele>
        <time>2012-11-08T12:54:38Z</time>
      </trkpt>
      <trkpt lat="48.61439" lon="-3.23151">
        <ele>102.1</ele>
        <time>2012-11-08T12:54:38Z</time>
      </trkpt>
      <trkpt lat="48.61414" lon="-3.23201">
        <ele>102.5</ele>
        <time>2012-11-08T12:54:38Z</time>
      </trkpt>
      <trkpt lat="48.61373" lon="-3.2321">
        <ele>103.2</ele>
        <time>2012-11-08T12:54:38Z</time>
      </trkpt>
      <trkpt lat="48.61339" lon="-3.23225">
        <ele>103.8</ele>
        <time>2012-11-08T12:54:38Z</time>
      </trkpt>
      <trkpt lat="48.61309" lon="-3.23264">
        <ele>104</ele>
        <time>2012-11-08T12:54:38Z</time>
      </trkpt>
      <trkpt lat="48.61275" lon="-3.23289">
        <ele>104</ele>
        <time>2012-11-08T12:54:38Z</time>
      </trkpt>
      <trkpt lat="48.61233" lon="-3.23286">
        <ele>104.6</ele>
        <time>2012-11-08T12:54:38Z</time>
      </trkpt>
      <trkpt lat="48.61196" lon="-3.23317">
        <ele>105</ele>
        <time>2012-11-08T12:54:38Z</time>
      </trkpt>
      <trkpt lat="48.61155" lon="-3.23299">
        <ele>106.2</ele>
        <time>2012-11-08T12:54:38Z</time>
      </trkpt>
      <trkpt lat="48.61117" lon="-3.23266">
        <ele>107.4</ele>
        <time>2012-11-08T12:54:38Z</time>
      </trkpt>
      <trkpt lat="48.61083" lon="-3.23215">
        <ele>107.8</ele>
        <time>2012-11-08T12:54:38Z</time>
      </trkpt>
      <trkpt lat="48.61059" lon="-3.23177">
        <ele>108.6</ele>
        <time>2012-11-08T12:54:38Z</time>
      </trkpt>
      <trkpt lat="48.61019" lon="-3.23152">
        <ele>109.7</ele>
        <time>2012-11-08T12:54:38Z</time>
      </trkpt>
      <trkpt lat="48.6098" lon="-3.23141">
        <ele>109.3</ele>
        <time>2012-11-08T12:54:38Z</time>
      </trkpt>
      <trkpt lat="48.6094" lon="-3.23136">
        <ele>110.2</ele>
        <time>2012-11-08T12:54:38Z</time>
      </trkpt>
      <trkpt lat="48.60899" lon="-3.23126">
        <ele>111.8</ele>
        <time>2012-11-08T12:54:38Z</time>
      </trkpt>
      <trkpt lat="48.6086" lon="-3.23106">
        <ele>111.9</ele>
        <time>2012-11-08T12:54:38Z</time>
      </trkpt>
      <trkpt lat="48.6084" lon="-3.23055">
        <ele>111</ele>
        <time>2012-11-08T12:54:38Z</time>
      </trkpt>
      <trkpt lat="48.60799" lon="-3.23046">
        <ele>113.2</ele>
        <time>2012-11-08T12:54:38Z</time>
      </trkpt>
      <trkpt lat="48.60757" lon="-3.2305">
        <ele>114.5</ele>
        <time>2012-11-08T12:54:38Z</time>
      </trkpt>
      <trkpt lat="48.60724" lon="-3.23">
        <ele>115.9</ele>
        <time>2012-11-08T12:54:38Z</time>
      </trkpt>
      <trkpt lat="48.60688" lon="-3.22952">
        <ele>119.5</ele>
        <time>2012-11-08T12:54:38Z</time>
      </trkpt>
      <trkpt lat="48.60649" lon="-3.22921">
        <ele>121.4</ele>
        <time>2012-11-08T12:54:38Z</time>
      </trkpt>
      <trkpt lat="48.60614" lon="-3.22872">
        <ele>123.2</ele>
        <time>2012-11-08T12:54:38Z</time>
      </trkpt>
      <trkpt lat="48.60575" lon="-3.2285">
        <ele>127.5</ele>
        <time>2012-11-08T12:54:38Z</time>
      </trkpt>
      <trkpt lat="48.60556" lon="-3.22802">
        <ele>130.1</ele>
        <time>2012-11-08T12:54:38Z</time>
      </trkpt>
      <trkpt lat="48.60588" lon="-3.22743">
        <ele>131</ele>
        <time>2012-11-08T12:54:38Z</time>
      </trkpt>
      <trkpt lat="48.60611" lon="-3.22687">
        <ele>130.3</ele>
        <time>2012-11-08T12:54:38Z</time>
      </trkpt>
      <trkpt lat="48.6062" lon="-3.22621">
        <ele>130.9</ele>
        <time>2012-11-08T12:54:38Z</time>
      </trkpt>
      <trkpt lat="48.60596" lon="-3.2256">
        <ele>132</ele>
        <time>2012-11-08T12:54:38Z</time>
      </trkpt>
      <trkpt lat="48.60555" lon="-3.22529">
        <ele>133.1</ele>
        <time>2012-11-08T12:54:38Z</time>
      </trkpt>
      <trkpt lat="48.60513" lon="-3.22508">
        <ele>135.7</ele>
        <time>2012-11-08T12:54:38Z</time>
      </trkpt>
      <trkpt lat="48.60471" lon="-3.22497">
        <ele>137.1</ele>
        <time>2012-11-08T12:54:38Z</time>
      </trkpt>
      <trkpt lat="48.60433" lon="-3.22462">
        <ele>138.8</ele>
        <time>2012-11-08T12:54:38Z</time>
      </trkpt>
      <trkpt lat="48.60459" lon="-3.22406">
        <ele>139.2</ele>
        <time>2012-11-08T12:54:38Z</time>
      </trkpt>
      <trkpt lat="48.60487" lon="-3.22352">
        <ele>139.5</ele>
        <time>2012-11-08T12:54:38Z</time>
      </trkpt>
      <trkpt lat="48.60512" lon="-3.22296">
        <ele>140.2</ele>
        <time>2012-11-08T12:54:38Z</time>
      </trkpt>
      <trkpt lat="48.60524" lon="-3.22231">
        <ele>140.1</ele>
        <time>2012-11-08T12:54:38Z</time>
      </trkpt>
      <trkpt lat="48.60539" lon="-3.2216">
        <ele>141.3</ele>
        <time>2012-11-08T12:54:38Z</time>
      </trkpt>
      <trkpt lat="48.60565" lon="-3.22099">
        <ele>141.3</ele>
        <time>2012-11-08T12:54:38Z</time>
      </trkpt>
      <trkpt lat="48.6059" lon="-3.22036">
        <ele>141.9</ele>
        <time>2012-11-08T12:54:38Z</time>
      </trkpt>
      <trkpt lat="48.60617" lon="-3.21978">
        <ele>142</ele>
        <time>2012-11-08T12:54:38Z</time>
      </trkpt>
      <trkpt lat="48.60646" lon="-3.21914">
        <ele>141</ele>
        <time>2012-11-08T12:54:38Z</time>
      </trkpt>
      <trkpt lat="48.60673" lon="-3.21852">
        <ele>140.1</ele>
        <time>2012-11-08T12:54:38Z</time>
      </trkpt>
      <trkpt lat="48.60699" lon="-3.21791">
        <ele>138.1</ele>
        <time>2012-11-08T12:54:38Z</time>
      </trkpt>
      <trkpt lat="48.60726" lon="-3.21732">
        <ele>136</ele>
        <time>2012-11-08T12:54:38Z</time>
      </trkpt>
      <trkpt lat="48.60753" lon="-3.2167">
        <ele>133.3</ele>
        <time>2012-11-08T12:54:38Z</time>
      </trkpt>
      <trkpt lat="48.6078" lon="-3.21606">
        <ele>131.7</ele>
        <time>2012-11-08T12:54:38Z</time>
      </trkpt>
      <trkpt lat="48.60816" lon="-3.21587">
        <ele>129.8</ele>
        <time>2012-11-08T12:54:38Z</time>
      </trkpt>
      <trkpt lat="48.60853" lon="-3.21616">
        <ele>128</ele>
        <time>2012-11-08T12:54:38Z</time>
      </trkpt>
      <trkpt lat="48.60875" lon="-3.21625">
        <ele>126.8</ele>
        <time>2012-11-08T12:54:38Z</time>
      </trkpt>
      <trkpt lat="48.60874" lon="-3.21627">
        <ele>126.9</ele>
        <time>2012-11-08T12:54:38Z</time>
      </trkpt>
      <trkpt lat="48.60884" lon="-3.21586">
        <ele>124.6</ele>
        <time>2012-11-08T12:54:38Z</time>
      </trkpt>
      <trkpt lat="48.60845" lon="-3.21573">
        <ele>128.5</ele>
        <time>2012-11-08T12:54:38Z</time>
      </trkpt>
      <trkpt lat="48.60817" lon="-3.2155">
        <ele>129.9</ele>
        <time>2012-11-08T12:54:38Z</time>
      </trkpt>
      <trkpt lat="48.6081" lon="-3.21486">
        <ele>129.3</ele>
        <time>2012-11-08T12:54:38Z</time>
      </trkpt>
      <trkpt lat="48.60816" lon="-3.21422">
        <ele>127.2</ele>
        <time>2012-11-08T12:54:38Z</time>
      </trkpt>
      <trkpt lat="48.60827" lon="-3.21358">
        <ele>119.8</ele>
        <time>2012-11-08T12:54:38Z</time>
      </trkpt>
      <trkpt lat="48.60816" lon="-3.21287">
        <ele>116.9</ele>
        <time>2012-11-08T12:54:38Z</time>
      </trkpt>
      <trkpt lat="48.6082" lon="-3.21217">
        <ele>123.9</ele>
        <time>2012-11-08T12:54:38Z</time>
      </trkpt>
      <trkpt lat="48.60834" lon="-3.21154">
        <ele>126.4</ele>
        <time>2012-11-08T12:54:38Z</time>
      </trkpt>
      <trkpt lat="48.60844" lon="-3.21084">
        <ele>128.2</ele>
        <time>2012-11-08T12:54:38Z</time>
      </trkpt>
      <trkpt lat="48.6086" lon="-3.21021">
        <ele>128.3</ele>
        <time>2012-11-08T12:54:38Z</time>
      </trkpt>
      <trkpt lat="48.60878" lon="-3.20956">
        <ele>129</ele>
        <time>2012-11-08T12:54:38Z</time>
      </trkpt>
      <trkpt lat="48.60907" lon="-3.20916">
        <ele>128.3</ele>
        <time>2012-11-08T12:54:38Z</time>
      </trkpt>
      <trkpt lat="48.60951" lon="-3.20927">
        <ele>127.5</ele>
        <time>2012-11-08T12:54:38Z</time>
      </trkpt>
      <trkpt lat="48.60994" lon="-3.20922">
        <ele>126.8</ele>
        <time>2012-11-08T12:54:38Z</time>
      </trkpt>
      <trkpt lat="48.61039" lon="-3.20924">
        <ele>126.4</ele>
        <time>2012-11-08T12:54:38Z</time>
      </trkpt>
      <trkpt lat="48.61082" lon="-3.20939">
        <ele>125</ele>
        <time>2012-11-08T12:54:38Z</time>
      </trkpt>
      <trkpt lat="48.61126" lon="-3.20957">
        <ele>124.5</ele>
        <time>2012-11-08T12:54:38Z</time>
      </trkpt>
      <trkpt lat="48.61171" lon="-3.20975">
        <ele>122.8</ele>
        <time>2012-11-08T12:54:38Z</time>
      </trkpt>
      <trkpt lat="48.6121" lon="-3.21006">
        <ele>121.2</ele>
        <time>2012-11-08T12:54:38Z</time>
      </trkpt>
      <trkpt lat="48.61254" lon="-3.21024">
        <ele>119</ele>
        <time>2012-11-08T12:54:38Z</time>
      </trkpt>
      <trkpt lat="48.61293" lon="-3.21044">
        <ele>116.9</ele>
        <time>2012-11-08T12:54:38Z</time>
      </trkpt>
      <trkpt lat="48.61336" lon="-3.21046">
        <ele>112.8</ele>
        <time>2012-11-08T12:54:38Z</time>
      </trkpt>
      <trkpt lat="48.6138" lon="-3.21064">
        <ele>108.9</ele>
        <time>2012-11-08T12:54:38Z</time>
      </trkpt>
      <trkpt lat="48.61424" lon="-3.21078">
        <ele>105.7</ele>
        <time>2012-11-08T12:54:38Z</time>
      </trkpt>
      <trkpt lat="48.61463" lon="-3.21104">
        <ele>102.9</ele>
        <time>2012-11-08T12:54:38Z</time>
      </trkpt>
      <trkpt lat="48.61508" lon="-3.21124">
        <ele>100.1</ele>
        <time>2012-11-08T12:54:38Z</time>
      </trkpt>
      <trkpt lat="48.61548" lon="-3.21143">
        <ele>98.1</ele>
        <time>2012-11-08T12:54:38Z</time>
      </trkpt>
      <trkpt lat="48.61583" lon="-3.21185">
        <ele>96.3</ele>
        <time>2012-11-08T12:54:38Z</time>
      </trkpt>
      <trkpt lat="48.6162" lon="-3.21223">
        <ele>94.7</ele>
        <time>2012-11-08T12:54:38Z</time>
      </trkpt>
      <trkpt lat="48.61651" lon="-3.21265">
        <ele>97</ele>
        <time>2012-11-08T12:54:38Z</time>
      </trkpt>
      <trkpt lat="48.61693" lon="-3.21247">
        <ele>95.6</ele>
        <time>2012-11-08T12:54:38Z</time>
      </trkpt>
      <trkpt lat="48.61731" lon="-3.21239">
        <ele>93.6</ele>
        <time>2012-11-08T12:54:38Z</time>
      </trkpt>
      <trkpt lat="48.61773" lon="-3.21237">
        <ele>92.6</ele>
        <time>2012-11-08T12:54:38Z</time>
      </trkpt>
      <trkpt lat="48.61805" lon="-3.21219">
        <ele>92.9</ele>
        <time>2012-11-08T12:54:38Z</time>
      </trkpt>
      <trkpt lat="48.61834" lon="-3.21236">
        <ele>93</ele>
        <time>2012-11-08T12:54:38Z</time>
      </trkpt>
      <trkpt lat="48.61871" lon="-3.21272">
        <ele>92.3</ele>
        <time>2012-11-08T12:54:38Z</time>
      </trkpt>
      <trkpt lat="48.61908" lon="-3.21307">
        <ele>88.9</ele>
        <time>2012-11-08T12:54:38Z</time>
      </trkpt>
      <trkpt lat="48.6195" lon="-3.21312">
        <ele>84.9</ele>
        <time>2012-11-08T12:54:38Z</time>
      </trkpt>
      <trkpt lat="48.61991" lon="-3.21293">
        <ele>85</ele>
        <time>2012-11-08T12:54:38Z</time>
      </trkpt>
      <trkpt lat="48.62031" lon="-3.21271">
        <ele>84</ele>
        <time>2012-11-08T12:54:38Z</time>
      </trkpt>
      <trkpt lat="48.62067" lon="-3.21254">
        <ele>83</ele>
        <time>2012-11-08T12:54:38Z</time>
      </trkpt>
      <trkpt lat="48.62106" lon="-3.21241">
        <ele>85.1</ele>
        <time>2012-11-08T12:54:38Z</time>
      </trkpt>
      <trkpt lat="48.62149" lon="-3.21246">
        <ele>84.7</ele>
        <time>2012-11-08T12:54:38Z</time>
      </trkpt>
      <trkpt lat="48.62186" lon="-3.21266">
        <ele>83.2</ele>
        <time>2012-11-08T12:54:38Z</time>
      </trkpt>
      <trkpt lat="48.62225" lon="-3.21275">
        <ele>80.4</ele>
        <time>2012-11-08T12:54:38Z</time>
      </trkpt>
      <trkpt lat="48.62264" lon="-3.2125">
        <ele>79.5</ele>
        <time>2012-11-08T12:54:38Z</time>
      </trkpt>
      <trkpt lat="48.62303" lon="-3.21221">
        <ele>79.5</ele>
        <time>2012-11-08T12:54:38Z</time>
      </trkpt>
      <trkpt lat="48.62344" lon="-3.21213">
        <ele>78.4</ele>
        <time>2012-11-08T12:54:38Z</time>
      </trkpt>
      <trkpt lat="48.6238" lon="-3.21182">
        <ele>77.3</ele>
        <time>2012-11-08T12:54:38Z</time>
      </trkpt>
      <trkpt lat="48.62424" lon="-3.21168">
        <ele>78.2</ele>
        <time>2012-11-08T12:54:38Z</time>
      </trkpt>
      <trkpt lat="48.62466" lon="-3.21144">
        <ele>83.1</ele>
        <time>2012-11-08T12:54:38Z</time>
      </trkpt>
      <trkpt lat="48.62508" lon="-3.21135">
        <ele>83.1</ele>
        <time>2012-11-08T12:54:38Z</time>
      </trkpt>
      <trkpt lat="48.6255" lon="-3.21143">
        <ele>78.2</ele>
        <time>2012-11-08T12:54:38Z</time>
      </trkpt>
      <trkpt lat="48.62592" lon="-3.21144">
        <ele>76.6</ele>
        <time>2012-11-08T12:54:38Z</time>
      </trkpt>
      <trkpt lat="48.62637" lon="-3.21152">
        <ele>76.1</ele>
        <time>2012-11-08T12:54:38Z</time>
      </trkpt>
      <trkpt lat="48.62681" lon="-3.2116">
        <ele>76.7</ele>
        <time>2012-11-08T12:54:38Z</time>
      </trkpt>
      <trkpt lat="48.62713" lon="-3.21201">
        <ele>73.5</ele>
        <time>2012-11-08T12:54:38Z</time>
      </trkpt>
      <trkpt lat="48.62756" lon="-3.21221">
        <ele>73.8</ele>
        <time>2012-11-08T12:54:38Z</time>
      </trkpt>
      <trkpt lat="48.62796" lon="-3.21208">
        <ele>72.7</ele>
        <time>2012-11-08T12:54:38Z</time>
      </trkpt>
      <trkpt lat="48.62824" lon="-3.21161">
        <ele>75.6</ele>
        <time>2012-11-08T12:54:38Z</time>
      </trkpt>
      <trkpt lat="48.62868" lon="-3.21174">
        <ele>76.2</ele>
        <time>2012-11-08T12:54:38Z</time>
      </trkpt>
      <trkpt lat="48.62903" lon="-3.21184">
        <ele>75.5</ele>
        <time>2012-11-08T12:54:38Z</time>
      </trkpt>
      <trkpt lat="48.62943" lon="-3.21194">
        <ele>74.1</ele>
        <time>2012-11-08T12:54:38Z</time>
      </trkpt>
      <trkpt lat="48.62988" lon="-3.21213">
        <ele>73.9</ele>
        <time>2012-11-08T12:54:38Z</time>
      </trkpt>
      <trkpt lat="48.63027" lon="-3.21229">
        <ele>74.4</ele>
        <time>2012-11-08T12:54:38Z</time>
      </trkpt>
      <trkpt lat="48.63064" lon="-3.21254">
        <ele>70</ele>
        <time>2012-11-08T12:54:38Z</time>
      </trkpt>
      <trkpt lat="48.63107" lon="-3.21282">
        <ele>67.9</ele>
        <time>2012-11-08T12:54:38Z</time>
      </trkpt>
      <trkpt lat="48.63147" lon="-3.21307">
        <ele>68.6</ele>
        <time>2012-11-08T12:54:38Z</time>
      </trkpt>
      <trkpt lat="48.63186" lon="-3.21319">
        <ele>70.4</ele>
        <time>2012-11-08T12:54:38Z</time>
      </trkpt>
      <trkpt lat="48.63225" lon="-3.21328">
        <ele>71</ele>
        <time>2012-11-08T12:54:38Z</time>
      </trkpt>
      <trkpt lat="48.63261" lon="-3.21342">
        <ele>70.7</ele>
        <time>2012-11-08T12:54:38Z</time>
      </trkpt>
      <trkpt lat="48.63304" lon="-3.21362">
        <ele>70</ele>
        <time>2012-11-08T12:54:38Z</time>
      </trkpt>
      <trkpt lat="48.63346" lon="-3.21373">
        <ele>69.6</ele>
        <time>2012-11-08T12:54:38Z</time>
      </trkpt>
      <trkpt lat="48.63391" lon="-3.21371">
        <ele>68.6</ele>
        <time>2012-11-08T12:54:38Z</time>
      </trkpt>
      <trkpt lat="48.63432" lon="-3.21352">
        <ele>71</ele>
        <time>2012-11-08T12:54:38Z</time>
      </trkpt>
      <trkpt lat="48.63475" lon="-3.21333">
        <ele>71.6</ele>
        <time>2012-11-08T12:54:38Z</time>
      </trkpt>
      <trkpt lat="48.63487" lon="-3.21324">
        <ele>70.9</ele>
        <time>2012-11-08T12:54:38Z</time>
      </trkpt>
      <trkpt lat="48.63489" lon="-3.21322">
        <ele>70.8</ele>
        <time>2012-11-08T12:54:38Z</time>
      </trkpt>
      <trkpt lat="48.63493" lon="-3.2132">
        <ele>70.5</ele>
        <time>2012-11-08T12:54:38Z</time>
      </trkpt>
      <trkpt lat="48.63493" lon="-3.21318">
        <ele>70.7</ele>
        <time>2012-11-08T12:54:38Z</time>
      </trkpt>
      <trkpt lat="48.63492" lon="-3.21325">
        <ele>70.1</ele>
        <time>2012-11-08T12:54:38Z</time>
      </trkpt>
      <trkpt lat="48.63494" lon="-3.21326">
        <ele>69.6</ele>
        <time>2012-11-08T12:54:38Z</time>
      </trkpt>
      <trkpt lat="48.63495" lon="-3.21322">
        <ele>70</ele>
        <time>2012-11-08T12:54:38Z</time>
      </trkpt>
      <trkpt lat="48.63499" lon="-3.21318">
        <ele>69.8</ele>
        <time>2012-11-08T12:54:38Z</time>
      </trkpt>
      <trkpt lat="48.635" lon="-3.21316">
        <ele>69.9</ele>
        <time>2012-11-08T12:54:38Z</time>
      </trkpt>
      <trkpt lat="48.63498" lon="-3.21314">
        <ele>70.4</ele>
        <time>2012-11-08T12:54:38Z</time>
      </trkpt>
      <trkpt lat="48.63499" lon="-3.21311">
        <ele>70.5</ele>
        <time>2012-11-08T12:54:38Z</time>
      </trkpt>
      <trkpt lat="48.63503" lon="-3.21307">
        <ele>70.5</ele>
        <time>2012-11-08T12:54:38Z</time>
      </trkpt>
      <trkpt lat="48.63504" lon="-3.21305">
        <ele>70.6</ele>
        <time>2012-11-08T12:54:38Z</time>
      </trkpt>
      <trkpt lat="48.63504" lon="-3.21302">
        <ele>70.8</ele>
        <time>2012-11-08T12:54:38Z</time>
      </trkpt>
      <trkpt lat="48.63507" lon="-3.21301">
        <ele>70.5</ele>
        <time>2012-11-08T12:54:38Z</time>
      </trkpt>
      <trkpt lat="48.63508" lon="-3.21298">
        <ele>70.6</ele>
        <time>2012-11-08T12:54:38Z</time>
      </trkpt>
      <trkpt lat="48.63509" lon="-3.21294">
        <ele>70.7</ele>
        <time>2012-11-08T12:54:38Z</time>
      </trkpt>
      <trkpt lat="48.63508" lon="-3.21292">
        <ele>71</ele>
        <time>2012-11-08T12:54:38Z</time>
      </trkpt>
      <trkpt lat="48.63507" lon="-3.2129">
        <ele>71.2</ele>
        <time>2012-11-08T12:54:38Z</time>
      </trkpt>
      <trkpt lat="48.63507" lon="-3.21288">
        <ele>71.3</ele>
        <time>2012-11-08T12:54:38Z</time>
      </trkpt>
      <trkpt lat="48.63506" lon="-3.21286">
        <ele>71.6</ele>
        <time>2012-11-08T12:54:38Z</time>
      </trkpt>
      <trkpt lat="48.63508" lon="-3.21284">
        <ele>71.5</ele>
        <time>2012-11-08T12:54:38Z</time>
      </trkpt>
      <trkpt lat="48.63509" lon="-3.21284">
        <ele>71.3</ele>
        <time>2012-11-08T12:54:38Z</time>
      </trkpt>
    </trkseg>
  </trk>
</gpx>